Simultaneous Nadir Overpasses (SNOs) Predictions

Prediction of SNOs between GOES-15 and METOP-A Satellite Orbit:

Table of predicted SNOs for the next 14.0 days since TLE Epoch: 7/30/2016
Index Date Time (GOES-15) GOES-15 Lat,Lon METOP-A Lat,Lon Distance(km) Time Diff (sec)
1 07/31/2016 18:25:00 -0.02,-134.93 -0.14,-134.34 66.21 80
2 08/02/2016 06:46:39 -0.01,-134.85 -0.92,-138.93 464.67 80
3 08/03/2016 06:23:20 0.02,-134.81 0.21,-133.94 99.59 80
4 08/04/2016 18:44:50 0.02,-134.76 0.84,-138.49 424.60 80
5 08/05/2016 18:21:31 -0.01,-134.72 -0.29,-133.50 139.44 80
6 08/07/2016 06:43:10 -0.02,-134.64 -0.76,-138.09 391.88 80
7 08/08/2016 06:19:50 0.00,-134.60 0.31,-133.09 172.05 80
8 08/09/2016 18:41:20 0.04,-134.54 0.75,-137.63 352.89 80
9 08/10/2016 18:18:00 0.01,-134.50 -0.38,-132.64 210.59 80
10 08/12/2016 06:39:40 -0.05,-134.41 -0.66,-137.23 321.77 80
11 08/13/2016 06:16:19 -0.02,-134.35 0.42,-132.23 241.35 80




NCC Satellite Simultaneous Nadir Overpasses (SNOs) Prediction Service
